| time (UTC) | temp C | wind direction | speed KPH | gust KPH | rain 1hr cm | rain 24hr cm | rain mn cm | humidity % | barometer mb |
| 20260506103038 | 19 | 133 | 8.0 | 19.3 | 0.00 | 0.00 | 0.00 | 77 | 1010.9 |
| 20260506102524 | 19 | 108 | 6.4 | 19.3 | 0.00 | 0.00 | 0.00 | 77 | 1010.5 |
| 20260506102024 | 19 | 130 | 8.0 | 16.1 | 0.00 | 0.00 | 0.00 | 76 | 1010.7 |
| 20260506101537 | 19 | 100 | 6.4 | 17.7 | 0.00 | 0.00 | 0.00 | 76 | 1010.9 |
| 20260506101024 | 19 | 108 | 8.0 | 17.7 | 0.00 | 0.00 | 0.00 | 76 | 1010.8 |
| 20260506100523 | 20 | 140 | 9.7 | 17.7 | 0.00 | 0.00 | 0.00 | 76 | 1010.9 |
| 20260506100055 | 20 | 133 | 4.8 | 14.5 | 0.00 | 0.00 | 0.00 | 75 | 1011.0 |
| 20260506095523 | 20 | 143 | 8.0 | 14.5 | 0.00 | 0.00 | 0.00 | 75 | 1010.9 |
| 20260506095024 | 20 | 133 | 6.4 | 12.9 | 0.00 | 0.00 | 0.00 | 75 | 1011.2 |
| 20260506094546 | 20 | 85 | 4.8 | 11.3 | 0.00 | 0.00 | 0.00 | 75 | 1011.2 |
| 20260506094022 | 20 | 91 | 6.4 | 12.9 | 0.00 | 0.00 | 0.00 | 75 | 1010.9 |
| 20260506093522 | 20 | 190 | 3.2 | 12.9 | 0.00 | 0.00 | 0.00 | 74 | 1011.0 |
| 20260506093041 | 20 | 99 | 6.4 | 16.1 | 0.00 | 0.00 | 0.00 | 74 | 1011.1 |
| 20260506092526 | 20 | 119 | 6.4 | 16.1 | 0.00 | 0.00 | 0.00 | 74 | 1011.1 |
| 20260506092023 | 20 | 110 | 4.8 | 16.1 | 0.00 | 0.00 | 0.00 | 74 | 1011.0 |
| 20260506091541 | 20 | 186 | 6.4 | 16.1 | 0.00 | 0.00 | 0.00 | 74 | 1010.8 |
| 20260506091024 | 20 | 123 | 4.8 | 12.9 | 0.00 | 0.00 | 0.00 | 74 | 1010.8 |
| 20260506090521 | 20 | 182 | 4.8 | 12.9 | 0.00 | 0.00 | 0.00 | 73 | 1010.7 |
| 20260506090037 | 20 | 86 | 4.8 | 9.7 | 0.00 | 0.00 | 0.00 | 73 | 1010.6 |
| 20260506085523 | 20 | 142 | 4.8 | 9.7 | 0.00 | 0.00 | 0.00 | 73 | 1010.6 |
| 20260506085023 | 20 | 108 | 3.2 | 14.5 | 0.00 | 0.00 | 0.00 | 73 | 1010.7 |
| 20260506084547 | 20 | 158 | 8.0 | 14.5 | 0.00 | 0.00 | 0.00 | 73 | 1010.6 |
| 20260506084024 | 20 | 155 | 3.2 | 14.5 | 0.00 | 0.00 | 0.00 | 73 | 1010.6 |
| 20260506083524 | 20 | 150 | 3.2 | 11.3 | 0.00 | 0.00 | 0.00 | 73 | 1010.5 |
| 20260506083037 | 20 | 139 | 4.8 | 14.5 | 0.00 | 0.00 | 0.00 | 72 | 1010.4 |
| 20260506082522 | 20 | 152 | 6.4 | 14.5 | 0.00 | 0.00 | 0.00 | 72 | 1010.3 |
| 20260506082022 | 20 | 164 | 6.4 | 17.7 | 0.00 | 0.00 | 0.00 | 72 | 1010.4 |
| 20260506081544 | 20 | 262 | 8.0 | 17.7 | 0.00 | 0.00 | 0.00 | 72 | 1010.3 |
| 20260506081023 | 20 | 162 | 6.4 | 16.1 | 0.00 | 0.00 | 0.00 | 72 | 1010.5 |
| 20260506080522 | 20 | 110 | 3.2 | 9.7 | 0.00 | 0.00 | 0.00 | 71 | 1010.6 |
| 20260506073524 | 20 | 50 | 3.2 | 8.0 | 0.00 | 0.00 | 0.00 | 69 | 1010.3 |
| 20260506073037 | 20 | 136 | 4.8 | 11.3 | 0.00 | 0.00 | 0.00 | 69 | 1010.3 |
| 20260506072524 | 20 | 82 | 6.4 | 11.3 | 0.00 | 0.00 | 0.00 | 68 | 1010.4 |
| 20260506072023 | 20 | 128 | 4.8 | 14.5 | 0.00 | 0.00 | 0.00 | 68 | 1010.3 |
| 20260506071539 | 20 | 176 | 4.8 | 14.5 | 0.00 | 0.00 | 0.00 | 68 | 1010.3 |
| 20260506071024 | 20 | 117 | 6.4 | 14.5 | 0.00 | 0.00 | 0.00 | 67 | 1010.2 |
| 20260506070521 | 20 | 121 | 6.4 | 11.3 | 0.00 | 0.00 | 0.00 | 67 | 1010.4 |
| 20260506062022 | 20 | 81 | 3.2 | 8.0 | 0.00 | 0.00 | 0.00 | 65 | 1011.0 |
| 20260506061540 | 20 | 102 | 3.2 | 8.0 | 0.00 | 0.00 | 0.00 | 65 | 1011.1 |
| 20260506061022 | 20 | 151 | 3.2 | 8.0 | 0.00 | 0.00 | 0.00 | 65 | 1011.2 |
| 20260506060524 | 20 | 154 | 1.6 | 8.0 | 0.00 | 0.00 | 0.00 | 65 | 1011.2 |
| 20260506051022 | 20 | 185 | 3.2 | 9.7 | 0.00 | 0.00 | 0.00 | 63 | 1011.4 |
| 20260506050522 | 20 | 122 | 4.8 | 9.7 | 0.00 | 0.00 | 0.00 | 62 | 1011.4 |
| 20260506045023 | 20 | 101 | 3.2 | 6.4 | 0.00 | 0.00 | 0.00 | 62 | 1011.6 |
| 20260506044545 | 21 | 136 | 1.6 | 4.8 | 0.00 | 0.00 | 0.00 | 61 | 1011.6 |
| 20260506044021 | 21 | 158 | 1.6 | 4.8 | 0.00 | 0.00 | 0.00 | 61 | 1011.6 |
| 20260506043523 | 21 | 156 | 0.0 | 3.2 | 0.00 | 0.00 | 0.00 | 60 | 1011.6 |
| 20260506043037 | 21 | 210 | 0.0 | 3.2 | 0.00 | 0.00 | 0.00 | 60 | 1011.6 |
| 20260506042526 | 21 | 160 | 0.0 | 1.6 | 0.00 | 0.00 | 0.00 | 60 | 1011.6 |
| 20260506042024 | 21 | 0 | 0.0 | 4.8 | 0.00 | 0.00 | 0.00 | 60 | 1011.5 |
| 20260506041551 | 21 | 129 | 0.0 | 4.8 | 0.00 | 0.00 | 0.00 | 60 | 1011.6 |
| 20260506041023 | 21 | 137 | 1.6 | 4.8 | 0.00 | 0.00 | 0.00 | 60 | 1011.7 |
| 20260506040524 | 21 | 144 | 3.2 | 4.8 | 0.00 | 0.00 | 0.00 | 59 | 1011.7 |
| 20260506040044 | 21 | 126 | 3.2 | 4.8 | 0.00 | 0.00 | 0.00 | 59 | 1011.6 |
| 20260506035526 | 21 | 135 | 1.6 | 3.2 | 0.00 | 0.00 | 0.00 | 59 | 1011.5 |
| 20260506035023 | 21 | 119 | 1.6 | 3.2 | 0.00 | 0.00 | 0.00 | 59 | 1011.7 |
| 20260506034541 | 21 | 168 | 0.0 | 3.2 | 0.00 | 0.00 | 0.00 | 58 | 1011.8 |
| 20260506034022 | 21 | 158 | 0.0 | 3.2 | 0.00 | 0.00 | 0.00 | 58 | 1011.9 |
| 20260506033521 | 21 | 145 | 0.0 | 3.2 | 0.00 | 0.00 | 0.00 | 58 | 1011.9 |
| 20260506033042 | 21 | 279 | 0.0 | 3.2 | 0.00 | 0.00 | 0.00 | 57 | 1012.0 |
| 20260506032523 | 21 | 198 | 0.0 | 3.2 | 0.00 | 0.00 | 0.00 | 57 | 1011.9 |
| 20260506032023 | 21 | 309 | 0.0 | 9.7 | 0.00 | 0.00 | 0.00 | 57 | 1011.9 |
| 20260506031540 | 21 | 173 | 1.6 | 9.7 | 0.00 | 0.00 | 0.00 | 57 | 1011.8 |
| 20260506031022 | 21 | 89 | 3.2 | 12.9 | 0.00 | 0.00 | 0.00 | 57 | 1011.6 |
| 20260506030524 | 21 | 120 | 6.4 | 12.9 | 0.00 | 0.00 | 0.00 | 56 | 1011.5 |
| 20260506030059 | 21 | 121 | 3.2 | 8.0 | 0.00 | 0.00 | 0.00 | 56 | 1011.6 |
| 20260506025522 | 21 | 110 | 3.2 | 11.3 | 0.00 | 0.00 | 0.00 | 56 | 1011.8 |
| 20260506025027 | 21 | 136 | 3.2 | 12.9 | 0.00 | 0.00 | 0.00 | 56 | 1011.9 |
| 20260506024554 | 21 | 111 | 4.8 | 12.9 | 0.00 | 0.00 | 0.00 | 56 | 1011.9 |
| 20260506024022 | 21 | 131 | 4.8 | 11.3 | 0.00 | 0.00 | 0.00 | 55 | 1012.0 |
| 20260506023523 | 21 | 104 | 4.8 | 11.3 | 0.00 | 0.00 | 0.00 | 55 | 1012.0 |
| 20260506023043 | 21 | 171 | 3.2 | 11.3 | 0.00 | 0.00 | 0.00 | 55 | 1012.0 |
| 20260506022522 | 21 | 127 | 3.2 | 11.3 | 0.00 | 0.00 | 0.00 | 55 | 1011.9 |
| 20260506022022 | 21 | 159 | 3.2 | 12.9 | 0.00 | 0.00 | 0.00 | 55 | 1011.6 |
| 20260506021542 | 21 | 173 | 4.8 | 12.9 | 0.00 | 0.00 | 0.00 | 55 | 1011.6 |
| 20260506021022 | 21 | 116 | 4.8 | 12.9 | 0.00 | 0.00 | 0.00 | 55 | 1011.6 |
| 20260506020527 | 21 | 159 | 6.4 | 12.9 | 0.00 | 0.00 | 0.00 | 55 | 1011.5 |
| 20260506020040 | 21 | 205 | 6.4 | 14.5 | 0.00 | 0.00 | 0.00 | 55 | 1011.5 |
| 20260506015522 | 21 | 186 | 4.8 | 14.5 | 0.00 | 0.00 | 0.00 | 55 | 1011.4 |
| 20260506015022 | 21 | 152 | 6.4 | 17.7 | 0.00 | 0.00 | 0.00 | 55 | 1011.4 |
| 20260506014556 | 21 | 139 | 4.8 | 17.7 | 0.00 | 0.00 | 0.00 | 55 | 1011.4 |
| 20260506014021 | 21 | 146 | 8.0 | 16.1 | 0.00 | 0.00 | 0.00 | 55 | 1011.4 |
| 20260506013524 | 21 | 163 | 4.8 | 16.1 | 0.00 | 0.00 | 0.00 | 55 | 1011.3 |
| 20260506013045 | 21 | 147 | 6.4 | 14.5 | 0.00 | 0.00 | 0.00 | 55 | 1011.3 |
| 20260506012523 | 21 | 126 | 6.4 | 14.5 | 0.00 | 0.00 | 0.00 | 55 | 1011.2 |
| 20260506012023 | 21 | 176 | 4.8 | 12.9 | 0.00 | 0.00 | 0.00 | 55 | 1011.3 |
| 20260506011553 | 21 | 119 | 6.4 | 17.7 | 0.00 | 0.00 | 0.00 | 54 | 1011.1 |
| 20260506011023 | 21 | 114 | 8.0 | 17.7 | 0.00 | 0.00 | 0.00 | 54 | 1011.1 |
| 20260506010523 | 21 | 29 | 4.8 | 12.9 | 0.00 | 0.00 | 0.00 | 54 | 1011.1 |
| 20260506010050 | 21 | 176 | 4.8 | 12.9 | 0.00 | 0.00 | 0.00 | 54 | 1011.1 |
| 20260506005522 | 22 | 163 | 4.8 | 11.3 | 0.00 | 0.00 | 0.00 | 54 | 1011.1 |
| 20260506005023 | 22 | 154 | 3.2 | 11.3 | 0.00 | 0.00 | 0.00 | 53 | 1011.0 |
| 20260506004549 | 22 | 108 | 3.2 | 11.3 | 0.00 | 0.00 | 0.00 | 53 | 1011.1 |
| 20260506004021 | 22 | 119 | 3.2 | 9.7 | 0.00 | 0.00 | 0.00 | 53 | 1011.2 |
| 20260506003523 | 22 | 124 | 4.8 | 8.0 | 0.00 | 0.00 | 0.00 | 52 | 1011.1 |
| 20260506003042 | 22 | 123 | 4.8 | 8.0 | 0.00 | 0.00 | 0.00 | 52 | 1011.1 |
| 20260506002520 | 22 | 117 | 3.2 | 8.0 | 0.00 | 0.00 | 0.00 | 52 | 1011.2 |
| 20260506002023 | 22 | 94 | 3.2 | 8.0 | 0.00 | 0.00 | 0.00 | 51 | 1011.2 |
| 20260506001538 | 22 | 102 | 1.6 | 6.4 | 0.00 | 0.00 | 0.00 | 51 | 1011.3 |
| 20260506001022 | 22 | 186 | 1.6 | 4.8 | 0.00 | 0.00 | 0.00 | 50 | 1011.3 |
| 20260506000524 | 22 | 179 | 1.6 | 4.8 | 0.00 | 0.00 | 0.00 | 50 | 1011.4 |
| 20260506000038 | 22 | 154 | 1.6 | 4.8 | 0.00 | 0.00 | 0.00 | 49 | 1011.2 |
| 20260505235521 | 22 | 175 | 1.6 | 6.4 | 0.00 | 0.00 | 0.00 | 49 | 1011.2 |
| 20260505235021 | 22 | 161 | 3.2 | 6.4 | 0.00 | 0.00 | 0.00 | 48 | 1011.2 |
| 20260505234537 | 23 | 125 | 1.6 | 11.3 | 0.00 | 0.00 | 0.00 | 48 | 1011.2 |
| 20260505234024 | 23 | 112 | 4.8 | 11.3 | 0.00 | 0.00 | 0.00 | 47 | 1011.2 |
| 20260505233524 | 23 | 200 | 1.6 | 12.9 | 0.00 | 0.00 | 0.00 | 46 | 1011.2 |
| 20260505233044 | 23 | 149 | 3.2 | 12.9 | 0.00 | 0.00 | 0.00 | 45 | 1011.3 |
| 20260505232521 | 23 | 158 | 6.4 | 12.9 | 0.00 | 0.00 | 0.00 | 45 | 1011.2 |
| 20260505232024 | 23 | 115 | 4.8 | 8.0 | 0.00 | 0.00 | 0.00 | 45 | 1011.3 |
| 20260505231542 | 23 | 155 | 3.2 | 11.3 | 0.00 | 0.00 | 0.00 | 45 | 1011.4 |
| 20260505231023 | 23 | 169 | 4.8 | 14.5 | 0.00 | 0.00 | 0.00 | 45 | 1011.3 |
| 20260505230523 | 23 | 160 | 3.2 | 14.5 | 0.00 | 0.00 | 0.00 | 45 | 1011.3 |
| 20260505230047 | 23 | 219 | 4.8 | 14.5 | 0.00 | 0.00 | 0.00 | 44 | 1011.3 |
| 20260505225523 | 23 | 91 | 6.4 | 12.9 | 0.00 | 0.00 | 0.00 | 44 | 1011.3 |
| 20260505225026 | 23 | 103 | 4.8 | 12.9 | 0.00 | 0.00 | 0.00 | 44 | 1011.4 |
| 20260505224546 | 23 | 112 | 4.8 | 11.3 | 0.00 | 0.00 | 0.00 | 44 | 1011.5 |
| 20260505224021 | 23 | 101 | 4.8 | 11.3 | 0.00 | 0.00 | 0.00 | 45 | 1011.4 |
| 20260505223523 | 23 | 159 | 3.2 | 9.7 | 0.00 | 0.00 | 0.00 | 46 | 1011.4 |
| 20260505223037 | 23 | 181 | 4.8 | 11.3 | 0.00 | 0.00 | 0.00 | 47 | 1011.3 |
| 20260505222521 | 23 | 174 | 4.8 | 11.3 | 0.00 | 0.00 | 0.00 | 47 | 1011.3 |
| 20260505222020 | 22 | 115 | 4.8 | 9.7 | 0.00 | 0.00 | 0.00 | 48 | 1011.3 |
| 20260505221537 | 22 | 129 | 3.2 | 6.4 | 0.00 | 0.00 | 0.00 | 49 | 1011.2 |
| 20260505221023 | 22 | 78 | 1.6 | 11.3 | 0.00 | 0.00 | 0.00 | 52 | 1011.4 |
| 20260505220523 | 22 | 155 | 3.2 | 11.3 | 0.00 | 0.00 | 0.00 | 51 | 1011.4 |
| 20260505220046 | 22 | 154 | 1.6 | 8.0 | 0.00 | 0.00 | 0.00 | 50 | 1011.3 |
| 20260505215525 | 22 | 89 | 3.2 | 14.5 | 0.00 | 0.00 | 0.00 | 49 | 1011.3 |
| 20260505215025 | 22 | 148 | 1.6 | 17.7 | 0.00 | 0.00 | 0.00 | 48 | 1011.2 |
| 20260505214541 | 23 | 167 | 9.7 | 17.7 | 0.00 | 0.00 | 0.00 | 47 | 1010.9 |
| 20260505214023 | 23 | 105 | 11.3 | 17.7 | 0.00 | 0.00 | 0.00 | 46 | 1010.9 |
| 20260505213527 | 23 | 119 | 8.0 | 16.1 | 0.00 | 0.00 | 0.00 | 44 | 1011.6 |
| 20260505213046 | 23 | 142 | 3.2 | 14.5 | 0.00 | 0.00 | 0.00 | 42 | 1012.0 |
| 20260505212521 | 24 | 126 | 4.8 | 14.5 | 0.00 | 0.00 | 0.00 | 41 | 1012.0 |
| 20260505212024 | 24 | 144 | 6.4 | 16.1 | 0.00 | 0.00 | 0.00 | 40 | 1012.0 |
| 20260505211542 | 24 | 137 | 6.4 | 16.1 | 0.00 | 0.00 | 0.00 | 39 | 1012.2 |
| 20260505211022 | 24 | 179 | 3.2 | 14.5 | 0.00 | 0.00 | 0.00 | 39 | 1012.1 |
| 20260505210521 | 24 | 144 | 4.8 | 14.5 | 0.00 | 0.00 | 0.00 | 38 | 1012.1 |
| 20260505210037 | 24 | 129 | 4.8 | 19.3 | 0.00 | 0.00 | 0.00 | 39 | 1012.0 |
| 20260505205524 | 25 | 154 | 4.8 | 19.3 | 0.00 | 0.00 | 0.00 | 39 | 1011.9 |
| 20260505205021 | 25 | 102 | 8.0 | 19.3 | 0.00 | 0.00 | 0.00 | 39 | 1011.8 |
| 20260505204544 | 25 | 184 | 9.7 | 19.3 | 0.00 | 0.00 | 0.00 | 39 | 1011.9 |
| 20260505204027 | 25 | 112 | 8.0 | 19.3 | 0.00 | 0.00 | 0.00 | 39 | 1012.0 |
| 20260505203521 | 25 | 233 | 6.4 | 22.5 | 0.00 | 0.00 | 0.00 | 38 | 1012.1 |
| 20260505203049 | 25 | 126 | 9.7 | 22.5 | 0.00 | 0.00 | 0.00 | 38 | 1012.1 |
| 20260505202523 | 25 | 75 | 9.7 | 22.5 | 0.00 | 0.00 | 0.00 | 36 | 1012.3 |
| 20260505202023 | 25 | 189 | 6.4 | 25.7 | 0.00 | 0.00 | 0.00 | 37 | 1012.4 |
| 20260505201540 | 25 | 179 | 11.3 | 25.7 | 0.00 | 0.00 | 0.00 | 36 | 1012.5 |
| 20260505201023 | 25 | 256 | 8.0 | 24.1 | 0.00 | 0.00 | 0.00 | 35 | 1012.5 |
| 20260505200521 | 26 | 209 | 12.9 | 32.2 | 0.00 | 0.00 | 0.00 | 32 | 1012.5 |
| 20260505200041 | 26 | 182 | 6.4 | 32.2 | 0.00 | 0.00 | 0.00 | 40 | 1012.4 |
| 20260505195526 | 26 | 128 | 12.9 | 32.2 | 0.00 | 0.00 | 0.00 | 40 | 1012.3 |
| 20260505195021 | 26 | 132 | 8.0 | 22.5 | 0.00 | 0.00 | 0.00 | 42 | 1012.5 |
| 20260505194555 | 26 | 196 | 8.0 | 22.5 | 0.00 | 0.00 | 0.00 | 41 | 1012.6 |
| 20260505194022 | 26 | 189 | 9.7 | 22.5 | 0.00 | 0.00 | 0.00 | 41 | 1012.5 |
| 20260505193527 | 26 | 289 | 3.2 | 25.7 | 0.00 | 0.00 | 0.00 | 42 | 1012.7 |
| 20260505193103 | 26 | 132 | 11.3 | 25.7 | 0.00 | 0.00 | 0.00 | 41 | 1012.8 |
| 20260505192521 | 26 | 182 | 8.0 | 24.1 | 0.00 | 0.00 | 0.00 | 41 | 1012.9 |
| 20260505192021 | 26 | 142 | 8.0 | 20.9 | 0.00 | 0.00 | 0.00 | 40 | 1012.9 |
| 20260505191544 | 26 | 133 | 9.7 | 20.9 | 0.00 | 0.00 | 0.00 | 39 | 1012.9 |
| 20260505191024 | 26 | 183 | 8.0 | 24.1 | 0.00 | 0.00 | 0.00 | 40 | 1012.8 |
| 20260505190523 | 26 | 80 | 9.7 | 24.1 | 0.00 | 0.00 | 0.00 | 40 | 1012.8 |
| 20260505190043 | 26 | 120 | 9.7 | 25.7 | 0.00 | 0.00 | 0.00 | 40 | 1012.9 |
| 20260505185522 | 26 | 110 | 11.3 | 25.7 | 0.00 | 0.00 | 0.00 | 37 | 1012.8 |
| 20260505185025 | 26 | 175 | 11.3 | 25.7 | 0.00 | 0.00 | 0.00 | 38 | 1012.9 |
| 20260505184541 | 26 | 141 | 11.3 | 25.7 | 0.00 | 0.00 | 0.00 | 39 | 1013.1 |
| 20260505184024 | 25 | 236 | 8.0 | 27.4 | 0.00 | 0.00 | 0.00 | 37 | 1013.2 |
| 20260505183521 | 26 | 186 | 12.9 | 27.4 | 0.00 | 0.00 | 0.00 | 37 | 1013.5 |
| 20260505183044 | 25 | 171 | 11.3 | 25.7 | 0.00 | 0.00 | 0.00 | 39 | 1013.5 |
| 20260505182521 | 25 | 171 | 11.3 | 25.7 | 0.00 | 0.00 | 0.00 | 38 | 1013.6 |
| 20260505182023 | 26 | 165 | 8.0 | 27.4 | 0.00 | 0.00 | 0.00 | 38 | 1013.7 |
| 20260505181545 | 26 | 187 | 14.5 | 27.4 | 0.00 | 0.00 | 0.00 | 36 | 1013.8 |
| 20260505181022 | 26 | 75 | 8.0 | 25.7 | 0.00 | 0.00 | 0.00 | 40 | 1013.8 |
| 20260505180521 | 25 | 175 | 9.7 | 25.7 | 0.00 | 0.00 | 0.00 | 39 | 1013.8 |
| 20260505180045 | 25 | 133 | 12.9 | 29.0 | 0.00 | 0.00 | 0.00 | 40 | 1013.7 |
| 20260505175526 | 25 | 156 | 14.5 | 35.4 | 0.00 | 0.00 | 0.00 | 39 | 1013.7 |
| 20260505175024 | 25 | 100 | 16.1 | 37.0 | 0.00 | 0.00 | 0.00 | 39 | 1013.6 |
| 20260505174542 | 25 | 119 | 20.9 | 37.0 | 0.00 | 0.00 | 0.00 | 38 | 1013.6 |
| 20260505174023 | 25 | 112 | 20.9 | 33.8 | 0.00 | 0.00 | 0.00 | 40 | 1013.6 |
| 20260505173527 | 25 | 140 | 14.5 | 29.0 | 0.00 | 0.00 | 0.00 | 41 | 1013.7 |
| 20260505173041 | 25 | 112 | 12.9 | 30.6 | 0.00 | 0.00 | 0.00 | 42 | 1013.7 |
| 20260505172524 | 25 | 131 | 12.9 | 30.6 | 0.00 | 0.00 | 0.00 | 41 | 1013.8 |
| 20260505172024 | 25 | 85 | 17.7 | 27.4 | 0.00 | 0.00 | 0.00 | 41 | 1013.9 |
| 20260505171547 | 25 | 124 | 9.7 | 25.7 | 0.00 | 0.00 | 0.00 | 42 | 1014.1 |
| 20260505171024 | 25 | 69 | 12.9 | 22.5 | 0.00 | 0.00 | 0.00 | 41 | 1014.3 |
| 20260505170521 | 25 | 20 | 8.0 | 20.9 | 0.00 | 0.00 | 0.00 | 42 | 1014.6 |
| 20260505170039 | 25 | 229 | 8.0 | 25.7 | 0.00 | 0.00 | 0.00 | 41 | 1014.6 |
| 20260505165521 | 25 | 259 | 11.3 | 29.0 | 0.00 | 0.00 | 0.00 | 41 | 1014.4 |
| 20260505165022 | 25 | 169 | 14.5 | 29.0 | 0.00 | 0.00 | 0.00 | 41 | 1014.6 |
| 20260505164540 | 25 | 122 | 9.7 | 22.5 | 0.00 | 0.00 | 0.00 | 44 | 1014.5 |
| 20260505164021 | 25 | 171 | 4.8 | 25.7 | 0.00 | 0.00 | 0.00 | 46 | 1014.5 |
| 20260505163520 | 24 | 114 | 9.7 | 25.7 | 0.00 | 0.00 | 0.00 | 46 | 1014.6 |
| 20260505163043 | 24 | 178 | 6.4 | 25.7 | 0.00 | 0.00 | 0.00 | 47 | 1014.8 |
| 20260505162524 | 24 | 142 | 14.5 | 25.7 | 0.00 | 0.00 | 0.00 | 49 | 1014.6 |
| 20260505162020 | 23 | 75 | 4.8 | 17.7 | 0.00 | 0.00 | 0.00 | 48 | 1014.6 |
| 20260505161544 | 23 | 148 | 4.8 | 14.5 | 0.00 | 0.00 | 0.00 | 50 | 1014.6 |
| 20260505161024 | 23 | 145 | 6.4 | 16.1 | 0.00 | 0.00 | 0.00 | 52 | 1014.6 |
| 20260505160523 | 23 | 222 | 6.4 | 27.4 | 0.00 | 0.00 | 0.00 | 51 | 1014.6 |
| 20260505153045 | 22 | 169 | 9.7 | 20.9 | 0.00 | 0.00 | 0.00 | 55 | 1015.0 |
| 20260505152521 | 22 | 97 | 4.8 | 17.7 | 0.00 | 0.00 | 0.00 | 56 | 1014.9 |
| 20260505152029 | 22 | 111 | 11.3 | 17.7 | 0.00 | 0.00 | 0.00 | 56 | 1015.1 |
| 20260505151544 | 22 | 171 | 4.8 | 16.1 | 0.00 | 0.00 | 0.00 | 57 | 1015.0 |
| 20260505151024 | 21 | 107 | 8.0 | 16.1 | 0.00 | 0.00 | 0.00 | 57 | 1015.1 |
| 20260505150522 | 21 | 131 | 6.4 | 11.3 | 0.00 | 0.00 | 0.00 | 58 | 1015.2 |
| 20260505140521 | 18 | 179 | 4.8 | 9.7 | 0.00 | 0.00 | 0.00 | 66 | 1015.1 |
| 20260505125023 | 12 | 171 | 1.6 | 3.2 | 0.00 | 0.00 | 0.00 | 88 | 1014.9 |
| 20260505124537 | 12 | 146 | 0.0 | 3.2 | 0.00 | 0.00 | 0.00 | 88 | 1014.9 |
| 20260505124023 | 11 | 94 | 0.0 | 3.2 | 0.00 | 0.00 | 0.00 | 88 | 1014.7 |
| 20260505123524 | 11 | 114 | 1.6 | 3.2 | 0.00 | 0.00 | 0.00 | 89 | 1014.5 |
| 20260505123056 | 11 | 99 | 0.0 | 3.2 | 0.00 | 0.00 | 0.00 | 89 | 1014.4 |
| 20260505122524 | 11 | 0 | 0.0 | 3.2 | 0.00 | 0.00 | 0.00 | 89 | 1014.5 |
| 20260505122024 | 11 | 98 | 1.6 | 3.2 | 0.00 | 0.00 | 0.00 | 89 | 1014.3 |
| 20260505121543 | 10 | 83 | 1.6 | 3.2 | 0.00 | 0.00 | 0.00 | 89 | 1014.3 |
| 20260505121021 | 10 | 351 | 0.0 | 3.2 | 0.00 | 0.00 | 0.00 | 89 | 1014.4 |
| 20260505120521 | 10 | 351 | 0.0 | 0.0 | 0.00 | 0.00 | 0.00 | 89 | 1014.3 |
| 20260505120052 | 10 | 0 | 0.0 | 0.0 | 0.00 | 0.00 | 0.00 | 89 | 1014.2 |
| 20260505115523 | 10 | 0 | 0.0 | 0.0 | 0.00 | 0.00 | 0.00 | 89 | 1014.2 |
| 20260505115024 | 10 | 0 | 0.0 | 0.0 | 0.00 | 0.00 | 0.00 | 89 | 1014.2 |
| 20260505114541 | 9 | 0 | 0.0 | 0.0 | 0.00 | 0.00 | 0.00 | 89 | 1014.3 |
| 20260505114024 | 9 | 0 | 0.0 | 3.2 | 0.00 | 0.00 | 0.00 | 88 | 1014.2 |
| 20260505113523 | 9 | 0 | 0.0 | 3.2 | 0.00 | 0.00 | 0.00 | 88 | 1014.1 |
| 20260505113037 | 9 | 0 | 0.0 | 3.2 | 0.00 | 0.00 | 0.00 | 88 | 1013.9 |
| 20260505112527 | 9 | 0 | 0.0 | 0.0 | 0.00 | 0.00 | 0.00 | 88 | 1013.9 |
| 20260505112024 | 9 | 0 | 0.0 | 0.0 | 0.00 | 0.00 | 0.00 | 88 | 1013.8 |
| 20260505111538 | 9 | 0 | 0.0 | 0.0 | 0.00 | 0.00 | 0.00 | 88 | 1013.8 |
| 20260505111024 | 9 | 0 | 0.0 | 3.2 | 0.00 | 0.00 | 0.00 | 88 | 1013.7 |
| 20260505110524 | 9 | 0 | 0.0 | 3.2 | 0.00 | 0.00 | 0.00 | 88 | 1013.6 |